Back to catalog

THORAD DELTA 1 DEB

AliveLEO
NORAD 9989·DEBRIS·🇺🇸 United States

Launched Nov 15, 1974 from Vandenberg Space Force Base

Loading…

Next Passes (next 24 hours)

TLE

FreshSource: Space-Track

Epoch: Sep 14, 2026, 06:41 UTC

1 09989U 74089EG  26257.27867959  .00000785  00000-0  53639-2 0  9996
2 09989 103.0572 182.9885 0137752 204.9064 309.8782 12.49303716312623

Track THORAD DELTA 1 DEB in real time with AllMySat

Download on the App Store